| time (UTC) | temp F | wind direction | speed MPH | gust MPH | rain 1hr in | rain 24hr in | rain mn in | humidity % | barometer mb |
| 20260504022455 | 46 | 244 | 9.0 | 9.0 | 0.00 | 0.00 | 0.00 | 59 | 1014.4 |
| 20260504021954 | 46 | 240 | 8.0 | 9.0 | 0.00 | 0.00 | 0.00 | 58 | 1014.4 |
| 20260504021454 | 47 | 254 | 7.0 | 9.0 | 0.00 | 0.00 | 0.00 | 58 | 1014.4 |
| 20260504020955 | 47 | 227 | 5.0 | 10.0 | 0.00 | 0.00 | 0.00 | 58 | 1014.4 |
| 20260504020455 | 47 | 236 | 7.0 | 10.0 | 0.00 | 0.00 | 0.00 | 57 | 1014.3 |
| 20260504015954 | 47 | 239 | 8.0 | 10.0 | 0.00 | 0.00 | 0.00 | 57 | 1014.3 |
| 20260504015455 | 47 | 250 | 10.0 | 10.0 | 0.00 | 0.00 | 0.00 | 57 | 1014.3 |
| 20260504014955 | 47 | 227 | 6.0 | 8.0 | 0.00 | 0.00 | 0.00 | 57 | 1014.3 |
| 20260504014455 | 47 | 244 | 8.0 | 9.0 | 0.00 | 0.00 | 0.00 | 57 | 1014.2 |
| 20260504013955 | 47 | 234 | 6.0 | 8.0 | 0.00 | 0.00 | 0.00 | 57 | 1014.2 |
| 20260504013458 | 47 | 232 | 6.0 | 8.0 | 0.00 | 0.00 | 0.00 | 57 | 1014.2 |
| 20260504012956 | 47 | 230 | 6.0 | 8.0 | 0.00 | 0.00 | 0.00 | 56 | 1014.2 |
| 20260504012455 | 47 | 246 | 7.0 | 9.0 | 0.00 | 0.00 | 0.00 | 56 | 1014.1 |
| 20260504011955 | 47 | 225 | 7.0 | 9.0 | 0.00 | 0.00 | 0.00 | 55 | 1014.1 |
| 20260504011455 | 48 | 234 | 4.0 | 7.0 | 0.00 | 0.00 | 0.00 | 55 | 1014.0 |
| 20260504010955 | 48 | 216 | 4.0 | 8.0 | 0.00 | 0.00 | 0.00 | 55 | 1014.1 |
| 20260504005457 | 48 | 225 | 5.0 | 7.0 | 0.00 | 0.00 | 0.00 | 54 | 1014.1 |
| 20260504004457 | 49 | 240 | 6.0 | 7.0 | 0.00 | 0.00 | 0.00 | 53 | 1014.0 |
| 20260504003956 | 49 | 232 | 5.0 | 8.0 | 0.00 | 0.00 | 0.00 | 52 | 1014.0 |
| 20260504003457 | 50 | 230 | 7.0 | 9.0 | 0.00 | 0.00 | 0.00 | 51 | 1013.9 |
| 20260504002956 | 50 | 237 | 8.0 | 11.0 | 0.00 | 0.00 | 0.00 | 50 | 1013.9 |
| 20260504002457 | 50 | 248 | 8.0 | 9.0 | 0.00 | 0.00 | 0.00 | 51 | 1014.0 |
| 20260504001956 | 50 | 232 | 5.0 | 9.0 | 0.00 | 0.00 | 0.00 | 51 | 1013.9 |
| 20260504001455 | 51 | 246 | 9.0 | 11.0 | 0.00 | 0.00 | 0.00 | 49 | 1013.9 |
| 20260504000956 | 51 | 237 | 9.0 | 12.0 | 0.00 | 0.00 | 0.00 | 49 | 1013.9 |
| 20260504000455 | 51 | 244 | 9.0 | 11.0 | 0.00 | 0.00 | 0.00 | 48 | 1013.8 |
| 20260503235955 | 51 | 247 | 10.0 | 14.0 | 0.00 | 0.00 | 0.00 | 48 | 1013.8 |
| 20260503235455 | 52 | 241 | 9.0 | 15.0 | 0.00 | 0.00 | 0.00 | 47 | 1013.8 |
| 20260503234954 | 52 | 261 | 7.0 | 15.0 | 0.00 | 0.00 | 0.00 | 47 | 1013.8 |
| 20260503234455 | 52 | 226 | 8.0 | 12.0 | 0.00 | 0.00 | 0.00 | 47 | 1013.8 |
| 20260503233955 | 52 | 254 | 7.0 | 13.0 | 0.00 | 0.00 | 0.00 | 46 | 1013.8 |
| 20260503233456 | 53 | 253 | 10.0 | 16.0 | 0.00 | 0.00 | 0.00 | 45 | 1013.9 |
| 20260503232955 | 52 | 253 | 14.0 | 17.0 | 0.00 | 0.00 | 0.00 | 45 | 1013.9 |
| 20260503232456 | 53 | 247 | 11.0 | 19.0 | 0.00 | 0.00 | 0.00 | 45 | 1013.9 |
| 20260503231955 | 53 | 272 | 17.0 | 18.0 | 0.00 | 0.00 | 0.00 | 44 | 1013.9 |
| 20260503231455 | 53 | 260 | 8.0 | 13.0 | 0.00 | 0.00 | 0.00 | 44 | 1013.9 |
| 20260503230955 | 53 | 248 | 13.0 | 15.0 | 0.00 | 0.00 | 0.00 | 43 | 1013.9 |
| 20260503230455 | 53 | 257 | 13.0 | 17.0 | 0.00 | 0.00 | 0.00 | 43 | 1013.9 |
| 20260503225955 | 53 | 251 | 11.0 | 20.0 | 0.00 | 0.00 | 0.00 | 43 | 1014.0 |
| 20260503225455 | 53 | 262 | 9.0 | 16.0 | 0.00 | 0.00 | 0.00 | 44 | 1013.9 |
| 20260503224955 | 53 | 248 | 15.0 | 18.0 | 0.00 | 0.00 | 0.00 | 43 | 1013.9 |
| 20260503224455 | 53 | 243 | 14.0 | 22.0 | 0.00 | 0.00 | 0.00 | 42 | 1013.8 |
| 20260503223955 | 54 | 234 | 16.0 | 22.0 | 0.00 | 0.00 | 0.00 | 41 | 1013.9 |
| 20260503223455 | 54 | 248 | 13.0 | 18.0 | 0.00 | 0.00 | 0.00 | 42 | 1013.8 |
| 20260503222958 | 54 | 265 | 11.0 | 17.0 | 0.00 | 0.00 | 0.00 | 41 | 1013.8 |
| 20260503222455 | 54 | 255 | 13.0 | 17.0 | 0.00 | 0.00 | 0.00 | 42 | 1013.8 |
| 20260503221955 | 54 | 244 | 9.0 | 18.0 | 0.00 | 0.00 | 0.00 | 43 | 1013.9 |
| 20260503221455 | 53 | 261 | 18.0 | 18.0 | 0.00 | 0.00 | 0.00 | 42 | 1013.9 |
| 20260503220955 | 55 | 260 | 12.0 | 20.0 | 0.00 | 0.00 | 0.00 | 42 | 1013.9 |
| 20260503220455 | 54 | 261 | 14.0 | 16.0 | 0.00 | 0.00 | 0.00 | 41 | 1013.8 |
| 20260503215955 | 54 | 262 | 17.0 | 17.0 | 0.00 | 0.00 | 0.00 | 42 | 1013.8 |
| 20260503215455 | 54 | 251 | 12.0 | 22.0 | 0.00 | 0.00 | 0.00 | 42 | 1013.9 |
| 20260503214955 | 54 | 261 | 16.0 | 24.0 | 0.00 | 0.00 | 0.00 | 40 | 1013.9 |
| 20260503214455 | 55 | 258 | 17.0 | 18.0 | 0.00 | 0.00 | 0.00 | 40 | 1013.9 |
| 20260503213955 | 54 | 268 | 17.0 | 19.0 | 0.00 | 0.00 | 0.00 | 42 | 1013.9 |
| 20260503213455 | 54 | 281 | 7.0 | 20.0 | 0.00 | 0.00 | 0.00 | 42 | 1013.8 |
| 20260503212955 | 54 | 265 | 9.0 | 20.0 | 0.00 | 0.00 | 0.00 | 41 | 1013.9 |
| 20260503212455 | 54 | 233 | 12.0 | 17.0 | 0.00 | 0.00 | 0.00 | 42 | 1013.9 |
| 20260503211955 | 53 | 268 | 14.0 | 20.0 | 0.00 | 0.00 | 0.00 | 43 | 1013.9 |
| 20260503211455 | 54 | 255 | 13.0 | 21.0 | 0.00 | 0.00 | 0.00 | 44 | 1014.0 |
| 20260503210955 | 54 | 226 | 14.0 | 18.0 | 0.00 | 0.00 | 0.00 | 42 | 1013.9 |
| 20260503210455 | 54 | 248 | 14.0 | 23.0 | 0.00 | 0.00 | 0.00 | 42 | 1014.0 |
| 20260503205956 | 54 | 277 | 15.0 | 15.0 | 0.00 | 0.00 | 0.00 | 41 | 1013.9 |
| 20260503205455 | 54 | 247 | 9.0 | 15.0 | 0.00 | 0.00 | 0.00 | 44 | 1013.9 |
| 20260503204955 | 54 | 275 | 11.0 | 21.0 | 0.00 | 0.00 | 0.00 | 46 | 1014.0 |
| 20260503204455 | 53 | 255 | 18.0 | 23.0 | 0.00 | 0.00 | 0.00 | 42 | 1014.0 |
| 20260503203955 | 53 | 255 | 12.0 | 23.0 | 0.00 | 0.00 | 0.00 | 44 | 1014.0 |
| 20260503203455 | 54 | 262 | 17.0 | 19.0 | 0.00 | 0.00 | 0.00 | 41 | 1013.9 |
| 20260503202956 | 54 | 268 | 12.0 | 20.0 | 0.00 | 0.00 | 0.00 | 46 | 1014.0 |
| 20260503202455 | 53 | 278 | 15.0 | 23.0 | 0.00 | 0.00 | 0.00 | 45 | 1014.1 |
| 20260503201955 | 53 | 248 | 17.0 | 20.0 | 0.00 | 0.00 | 0.00 | 44 | 1014.1 |
| 20260503201455 | 53 | 300 | 10.0 | 19.0 | 0.00 | 0.00 | 0.00 | 43 | 1014.1 |
| 20260503200955 | 53 | 274 | 21.0 | 22.0 | 0.00 | 0.00 | 0.00 | 42 | 1014.2 |
| 20260503200455 | 53 | 271 | 10.0 | 22.0 | 0.00 | 0.00 | 0.00 | 44 | 1014.2 |
| 20260503195955 | 53 | 279 | 9.0 | 15.0 | 0.00 | 0.00 | 0.00 | 43 | 1014.3 |
| 20260503195455 | 54 | 278 | 10.0 | 12.0 | 0.00 | 0.00 | 0.00 | 43 | 1014.3 |
| 20260503194957 | 54 | 285 | 8.0 | 22.0 | 0.00 | 0.00 | 0.00 | 43 | 1014.5 |
| 20260503194456 | 54 | 210 | 14.0 | 25.0 | 0.00 | 0.00 | 0.00 | 44 | 1014.5 |
| 20260503193958 | 53 | 253 | 17.0 | 21.0 | 0.00 | 0.00 | 0.00 | 42 | 1014.6 |
| 20260503193456 | 54 | 258 | 17.0 | 17.0 | 0.00 | 0.00 | 0.00 | 44 | 1014.7 |
| 20260503192956 | 53 | 278 | 12.0 | 21.0 | 0.00 | 0.00 | 0.00 | 44 | 1014.7 |
| 20260503192455 | 53 | 264 | 8.0 | 17.0 | 0.00 | 0.00 | 0.00 | 43 | 1014.7 |
| 20260503191955 | 53 | 268 | 14.0 | 18.0 | 0.00 | 0.00 | 0.00 | 42 | 1014.8 |
| 20260503191456 | 53 | 282 | 9.0 | 21.0 | 0.00 | 0.00 | 0.00 | 45 | 1014.9 |
| 20260503190955 | 53 | 274 | 9.0 | 19.0 | 0.00 | 0.00 | 0.00 | 44 | 1014.8 |
| 20260503190455 | 53 | 217 | 14.0 | 19.0 | 0.00 | 0.00 | 0.00 | 47 | 1015.1 |
| 20260503185956 | 52 | 253 | 17.0 | 21.0 | 0.00 | 0.00 | 0.00 | 43 | 1015.1 |
| 20260503185455 | 52 | 265 | 16.0 | 25.0 | 0.00 | 0.00 | 0.00 | 43 | 1015.1 |
| 20260503184956 | 53 | 232 | 15.0 | 20.0 | 0.00 | 0.00 | 0.00 | 45 | 1015.2 |
| 20260503184455 | 52 | 262 | 18.0 | 26.0 | 0.00 | 0.00 | 0.00 | 43 | 1015.3 |
| 20260503183955 | 52 | 275 | 13.0 | 20.0 | 0.00 | 0.00 | 0.00 | 43 | 1015.3 |
| 20260503183459 | 52 | 260 | 8.0 | 20.0 | 0.00 | 0.00 | 0.00 | 44 | 1015.3 |
| 20260503182956 | 53 | 289 | 15.0 | 15.0 | 0.00 | 0.00 | 0.00 | 45 | 1015.4 |
| 20260503182455 | 52 | 257 | 11.0 | 20.0 | 0.00 | 0.00 | 0.00 | 44 | 1015.4 |
| 20260503181955 | 51 | 257 | 9.0 | 14.0 | 0.00 | 0.00 | 0.00 | 43 | 1015.5 |
| 20260503181456 | 52 | 282 | 12.0 | 21.0 | 0.00 | 0.00 | 0.00 | 44 | 1015.5 |
| 20260503180956 | 51 | 262 | 19.0 | 19.0 | 0.00 | 0.00 | 0.00 | 44 | 1015.5 |
| 20260503180457 | 53 | 281 | 12.0 | 19.0 | 0.00 | 0.00 | 0.00 | 47 | 1015.6 |
| 20260503175956 | 52 | 305 | 9.0 | 18.0 | 0.00 | 0.00 | 0.00 | 43 | 1015.5 |
| 20260503175456 | 52 | 282 | 16.0 | 17.0 | 0.00 | 0.00 | 0.00 | 46 | 1015.5 |
| 20260503174956 | 51 | 274 | 11.0 | 19.0 | 0.00 | 0.00 | 0.00 | 47 | 1015.5 |
| 20260503174456 | 50 | 264 | 12.0 | 22.0 | 0.00 | 0.00 | 0.00 | 46 | 1015.5 |
| 20260503173956 | 51 | 241 | 12.0 | 23.0 | 0.00 | 0.00 | 0.00 | 48 | 1015.6 |
| 20260503173456 | 51 | 248 | 21.0 | 21.0 | 0.00 | 0.00 | 0.00 | 48 | 1015.7 |
| 20260503172956 | 51 | 241 | 15.0 | 17.0 | 0.00 | 0.00 | 0.00 | 45 | 1015.7 |
| 20260503172456 | 51 | 274 | 8.0 | 22.0 | 0.00 | 0.00 | 0.00 | 43 | 1015.7 |
| 20260503171955 | 51 | 243 | 13.0 | 24.0 | 0.00 | 0.00 | 0.00 | 45 | 1015.9 |
| 20260503171457 | 51 | 279 | 21.0 | 24.0 | 0.00 | 0.00 | 0.00 | 45 | 1015.8 |
| 20260503170956 | 51 | 255 | 14.0 | 21.0 | 0.00 | 0.00 | 0.00 | 48 | 1015.8 |
| 20260503170456 | 50 | 271 | 11.0 | 23.0 | 0.00 | 0.00 | 0.00 | 48 | 1015.8 |
| 20260503150956 | 45 | 241 | 18.0 | 22.0 | 0.00 | 0.00 | 0.00 | 56 | 1016.4 |
| 20260503150457 | 46 | 236 | 22.0 | 22.0 | 0.00 | 0.00 | 0.00 | 60 | 1016.4 |
| 20260503130956 | 39 | 299 | 8.0 | 14.0 | 0.00 | 0.00 | 0.00 | 79 | 1016.5 |
| 20260503130456 | 38 | 288 | 6.0 | 14.0 | 0.00 | 0.00 | 0.00 | 77 | 1016.4 |
| 20260503110456 | 31 | 268 | 4.0 | 5.0 | 0.00 | 0.00 | 0.00 | 93 | 1017.0 |
| 20260503090456 | 30 | 282 | 5.0 | 6.0 | 0.00 | 0.00 | 0.00 | 90 | 1015.4 |
| 20260503081456 | 32 | 282 | 3.0 | 4.0 | 0.00 | 0.00 | 0.00 | 86 | 1015.3 |
| 20260503080957 | 32 | 270 | 3.0 | 6.0 | 0.00 | 0.00 | 0.00 | 86 | 1015.3 |
| 20260503080456 | 32 | 292 | 4.0 | 5.0 | 0.00 | 0.00 | 0.00 | 86 | 1015.3 |
| 20260503072457 | 33 | 274 | 3.0 | 4.0 | 0.00 | 0.00 | 0.00 | 84 | 1015.1 |
| 20260503071956 | 33 | 262 | 3.0 | 4.0 | 0.00 | 0.00 | 0.00 | 83 | 1014.9 |
| 20260503071456 | 33 | 274 | 2.0 | 6.0 | 0.00 | 0.00 | 0.00 | 82 | 1014.9 |
| 20260503070957 | 34 | 277 | 5.0 | 5.0 | 0.00 | 0.00 | 0.00 | 82 | 1014.9 |
| 20260503070456 | 34 | 281 | 2.0 | 4.0 | 0.00 | 0.00 | 0.00 | 81 | 1014.9 |
| 20260503054958 | 36 | 305 | 2.0 | 8.0 | 0.00 | 0.00 | 0.00 | 77 | 1014.9 |
| 20260503054457 | 36 | 316 | 5.0 | 6.0 | 0.00 | 0.00 | 0.00 | 78 | 1014.9 |
| 20260503053957 | 36 | 316 | 2.0 | 8.0 | 0.00 | 0.00 | 0.00 | 78 | 1014.9 |
| 20260503053457 | 36 | 305 | 1.0 | 5.0 | 0.00 | 0.00 | 0.00 | 78 | 1015.1 |
| 20260503052958 | 36 | 295 | 5.0 | 5.0 | 0.00 | 0.00 | 0.00 | 78 | 1015.1 |
| 20260503052457 | 36 | 291 | 6.0 | 6.0 | 0.00 | 0.00 | 0.00 | 78 | 1015.2 |
| 20260503051958 | 35 | 298 | 3.0 | 4.0 | 0.00 | 0.00 | 0.00 | 79 | 1015.2 |
| 20260503051457 | 36 | 305 | 2.0 | 6.0 | 0.00 | 0.00 | 0.00 | 80 | 1015.3 |
| 20260503050957 | 35 | 295 | 3.0 | 5.0 | 0.00 | 0.00 | 0.00 | 80 | 1015.3 |
| 20260503050459 | 36 | 298 | 4.0 | 5.0 | 0.00 | 0.00 | 0.00 | 80 | 1015.3 |
| 20260503045958 | 36 | 300 | 3.0 | 5.0 | 0.00 | 0.00 | 0.00 | 80 | 1015.3 |
| 20260503045457 | 36 | 270 | 4.0 | 6.0 | 0.00 | 0.00 | 0.00 | 80 | 1015.4 |
| 20260503044958 | 36 | 272 | 3.0 | 5.0 | 0.00 | 0.00 | 0.00 | 80 | 1015.3 |
| 20260503044457 | 36 | 293 | 5.0 | 6.0 | 0.00 | 0.00 | 0.00 | 80 | 1015.3 |
| 20260503043957 | 36 | 298 | 3.0 | 6.0 | 0.00 | 0.00 | 0.00 | 79 | 1015.4 |
| 20260503043457 | 36 | 284 | 5.0 | 6.0 | 0.00 | 0.00 | 0.00 | 79 | 1015.4 |
| 20260503042957 | 36 | 272 | 3.0 | 5.0 | 0.00 | 0.00 | 0.00 | 78 | 1015.4 |
| 20260503042457 | 36 | 275 | 4.0 | 6.0 | 0.00 | 0.00 | 0.00 | 77 | 1015.4 |
| 20260503041957 | 37 | 278 | 4.0 | 7.0 | 0.00 | 0.00 | 0.00 | 76 | 1015.4 |
| 20260503041458 | 37 | 298 | 4.0 | 5.0 | 0.00 | 0.00 | 0.00 | 74 | 1015.4 |
| 20260503040958 | 37 | 300 | 5.0 | 5.0 | 0.00 | 0.00 | 0.00 | 74 | 1015.4 |
| 20260503040457 | 37 | 309 | 3.0 | 4.0 | 0.00 | 0.00 | 0.00 | 74 | 1015.4 |
| 20260503035957 | 37 | 324 | 2.0 | 5.0 | 0.00 | 0.00 | 0.00 | 74 | 1015.4 |
| 20260503035458 | 37 | 319 | 4.0 | 5.0 | 0.00 | 0.00 | 0.00 | 75 | 1015.4 |
| 20260503035000 | 37 | 327 | 3.0 | 4.0 | 0.00 | 0.00 | 0.00 | 75 | 1015.4 |
| 20260503034457 | 37 | 316 | 3.0 | 4.0 | 0.00 | 0.00 | 0.00 | 75 | 1015.4 |
| 20260503033958 | 37 | 305 | 3.0 | 6.0 | 0.00 | 0.00 | 0.00 | 76 | 1015.4 |
| 20260503033500 | 37 | 296 | 5.0 | 5.0 | 0.00 | 0.00 | 0.00 | 75 | 1015.5 |
| 20260503032958 | 37 | 274 | 5.0 | 6.0 | 0.00 | 0.00 | 0.00 | 75 | 1015.5 |
| 20260503032457 | 37 | 298 | 2.0 | 6.0 | 0.00 | 0.00 | 0.00 | 76 | 1015.5 |
| 20260503031957 | 38 | 282 | 2.0 | 5.0 | 0.00 | 0.00 | 0.00 | 76 | 1015.5 |
| 20260503031459 | 37 | 258 | 4.0 | 6.0 | 0.00 | 0.00 | 0.00 | 76 | 1015.5 |
| 20260503030957 | 38 | 293 | 4.0 | 5.0 | 0.00 | 0.00 | 0.00 | 75 | 1015.6 |
| 20260503030457 | 38 | 296 | 5.0 | 6.0 | 0.00 | 0.00 | 0.00 | 74 | 1015.6 |
| 20260503025957 | 38 | 275 | 5.0 | 7.0 | 0.00 | 0.00 | 0.00 | 74 | 1015.6 |
| 20260503025458 | 38 | 295 | 3.0 | 5.0 | 0.00 | 0.00 | 0.00 | 74 | 1015.6 |
| 20260503024959 | 38 | 285 | 2.0 | 7.0 | 0.00 | 0.00 | 0.00 | 74 | 1015.7 |
| 20260503024457 | 38 | 295 | 2.0 | 6.0 | 0.00 | 0.00 | 0.00 | 75 | 1015.7 |
| 20260503023957 | 38 | 282 | 5.0 | 7.0 | 0.00 | 0.00 | 0.00 | 73 | 1015.7 |
| 20260503023500 | 38 | 302 | 3.0 | 7.0 | 0.00 | 0.00 | 0.00 | 74 | 1015.7 |
| 20260503022958 | 38 | 260 | 2.0 | 6.0 | 0.00 | 0.00 | 0.00 | 75 | 1015.7 |